Location: Jackson
(42.2460°N, 84.4010°W)
Time: 02:52:01
(UTC-05:00)

Explorer 7 - Visible Passes

Search period start: 15 February 2026 00:00
Search period end: 25 February 2026 00:00
Orbit: 431 x 545 km, 50.2° (Epoch: 13 February)

Date Brightness Start Highest point End Pass type
(mag) Time Alt. Az. Time Alt. Az. Time Alt. Az.
15 Feb 8.2 19:06:12 10° WNW 19:09:17 24° N 19:11:52 13° NE visible
15 Feb 9.1 20:44:58 10° NW 20:46:14 18° NW 20:46:14 18° NW visible
16 Feb 8.2 18:40:35 10° WNW 18:43:39 24° N 18:46:48 10° NE visible
16 Feb 8.2 20:19:23 10° NW 20:21:46 27° NNW 20:21:46 27° NNW visible
17 Feb 7.6 19:53:45 10° NW 19:57:11 32° NNE 19:57:17 32° NNE visible
18 Feb 7.7 19:28:05 10° NW 19:31:28 31° NNE 19:32:49 24° NE visible
18 Feb 9.5 21:06:20 10° WNW 21:07:11 16° WNW 21:07:11 16° WNW visible
19 Feb 7.7 19:02:23 10° NW 19:05:44 30° NNE 19:08:22 15° ENE visible
19 Feb 8.3 20:40:38 10° WNW 20:42:45 32° WNW 20:42:45 32° WNW visible
20 Feb 6.8 20:14:53 10° WNW 20:18:21 72° W 20:18:21 72° W visible
21 Feb 6.5 19:49:07 10° WNW 19:52:53 85° SSW 19:54:01 44° SE visible
22 Feb 6.5 19:23:18 10° WNW 19:27:03 88° SSW 19:29:46 19° ESE visible
22 Feb 9.5 21:02:52 10° W 21:04:10 14° WSW 21:04:10 14° WSW visible
23 Feb 6.5 18:57:28 10° WNW 19:01:11 88° NNE 19:05:02 10° ESE visible
23 Feb 9.1 20:36:55 10° W 20:39:13 15° SW 20:40:02 15° SSW visible
24 Feb 9.3 20:10:57 10° W 20:13:19 16° SW 20:15:45 10° S visible
